Prescott, AZ

10:11 PM MST on December 15, 2019 (GMT -0700)
Love

Weather History for KPRC - October, 2019

Change the Weather History Date:

Saturday, October 26, 2019

  Actual Average Record
Temperature  
Mean Temperature 56 °F 53 °F  
Max Temperature 76 °F 68 °F 85 °F (2008)
Min Temperature 37 °F 38 °F 0 °F (2009)
Degree Days  
Heating Degree Days 8    
Month to date heating degree days 191  
Since 1 July heating degree days 218  
Cooling Degree Days 0    
Month to date cooling degree days 0  
Year to date cooling degree days 1130  
Growing Degree Days 6 (Base 50)    
Moisture  
Dew Point 18 °F    
Average Humidity 26    
Maximum Humidity 48    
Minimum Humidity 11    
Precipitation  
Precipitation 0.00 in 0.02 in 0.27 in (1951)
Month to date precipitation 0.00 0.77  
Year to date precipitation 10.29 11.94  
Sea Level Pressure  
Sea Level Pressure 29.86 in    
Wind  
Wind Speed 5 mph ()    
Max Wind Speed 15 mph    
Max Gust Speed 23 mph    
Visibility 9.8 miles    
Events      
T = Trace of Precipitation, MM = Missing Value Source: Averaged Metar Reports

Daily Weather History Graph

Daily Weather History Graph

Search for Another Location

Airport or City:

Astronomy

Oct. 26, 2019 Rise Set
Actual Time 6:44 AM MST 5:42 PM MST
Civil Twilight 6:18 AM MST 6:07 PM MST
Nautical Twilight 5:49 AM MST 6:37 PM MST
Astronomical Twilight 5:19 AM MST 7:06 PM MST
Moon 4:52 AM MST (10/26) 5:13 PM MST (10/26)
Length of Visible Light 11h 49m
Length of Day
10h 57m
Waning Crescent, 3% of the Moon is Illuminated
Oct 26
Waning Crescent
Oct 27
New
Nov 4
First Quarter
Nov 12
Full
Nov 19
Last Quarter

Hourly Weather History & Observations

Time (MST) Temp. Windchill Dew Point Humidity Pressure Visibility Wind Dir Wind Speed Gust Speed Precip Events Conditions
12:53 AM 44.1 °F 42.5 °F 19.9 °F 38% 29.99 in 10.0 mi South 3.5 mph - N/A   Clear
1:53 AM 43.0 °F 41.3 °F 19.0 °F 38% 29.98 in 10.0 mi SSW 3.5 mph - N/A   Clear
2:53 AM 41.0 °F 35.8 °F 18.0 °F 40% 29.96 in 10.0 mi South 8.1 mph - N/A   Clear
3:53 AM 39.0 °F 34.0 °F 19.0 °F 45% 29.95 in 9.0 mi South 6.9 mph - N/A   Clear
4:53 AM 39.9 °F 35.8 °F 18.0 °F 41% 29.94 in 9.0 mi SSW 5.8 mph - N/A   Clear
5:53 AM 41.0 °F 39.0 °F 18.0 °F 40% 29.93 in 10.0 mi SSW 3.5 mph - N/A   Clear
6:53 AM 37.9 °F 34.4 °F 19.0 °F 47% 29.99 in 10.0 mi SW 4.6 mph - N/A   Clear
7:53 AM 45.0 °F - 21.9 °F 40% 29.97 in 10.0 mi Calm Calm - N/A   Clear
8:53 AM 53.1 °F - 21.0 °F 29% 29.96 in 10.0 mi Calm Calm - N/A   Clear
9:53 AM 61.0 °F - 17.1 °F 18% 29.93 in 9.0 mi NNE 3.5 mph - N/A   Clear
10:53 AM 66.9 °F - 17.1 °F 15% 29.89 in 9.0 mi Calm Calm - N/A   Clear
11:53 AM 71.1 °F - 17.1 °F 13% 29.86 in 10.0 mi Calm Calm - N/A   Clear
12:53 PM 72.0 °F - 18.0 °F 13% 29.82 in 10.0 mi Calm Calm - N/A   Clear
1:53 PM 75.0 °F - 17.1 °F 11% 29.78 in 10.0 mi WSW 12.7 mph 17.3 mph N/A   Clear
2:53 PM 73.9 °F - 17.1 °F 12% 29.79 in 10.0 mi WSW 11.5 mph 17.3 mph N/A   Clear
3:53 PM 72.0 °F - 17.1 °F 12% 29.78 in 10.0 mi SW 12.7 mph - N/A   Clear
4:53 PM 70.0 °F - 17.1 °F 13% 29.78 in 10.0 mi WSW 13.8 mph - N/A   Clear
5:53 PM 64.9 °F - 18.0 °F 16% 29.78 in 10.0 mi SSW 6.9 mph - N/A   Clear
6:53 PM 62.1 °F - 18.0 °F 18% 29.80 in 10.0 mi South 6.9 mph - N/A   Clear
7:53 PM 60.1 °F - 19.0 °F 20% 29.78 in 10.0 mi South 8.1 mph - N/A   Clear
8:53 PM 57.9 °F - 19.0 °F 22% 29.77 in 10.0 mi SSE 5.8 mph - N/A   Clear
9:53 PM 55.9 °F - 19.9 °F 25% 29.76 in 10.0 mi South 9.2 mph - N/A   Clear
10:53 PM 52.0 °F - 19.0 °F 27% 29.75 in 10.0 mi SSE 3.5 mph - N/A   Clear
11:53 PM 54.0 °F - 19.0 °F 25% 29.73 in 10.0 mi ESE 3.5 mph - N/A   Clear